ONEWEB-0068, 45446

Orbit data source: Space-Track

ONEWEB-0068, 45446 is a payload satellite owned by One Web (UK) in LEO that was launched on Sat, 21 Mar 2020 UTC via a SOYUZ-2-1B launch vehicle from the Tyuratam Missile And Space Complex (TTMTR). Payload-class satellites include a variety of spacecraft equipped with specific instruments for various scientific and technological missions. These include communications satellites like Starlink; space stations such as the ISS; scientific satellites like the Hubble; Earth observation satellites from companies like Planet Labs, Umbra, and HawkEye 360; GPS; miniature CubeSats for education and research; and military/defense satellites.

Loading next visibility...
Identifier
45446, 2020-020Y
Orbit
LEO
Country
Flag of UKUK
Related business
Manufacturer
One Web
Mission
Operational Commercial Communications
Bus & Motor
ARROW, Unknown motor
Mass
148 kg wet, ~140 kg dry
Launch date (UTC)
2020-03-21 (6 years ago)
Launch vehicle
SOYUZ-2-1B
Launch site
Tyuratam Missile And Space Complex (TTMTR)
Object type
Payload
Rocket body
Debris
Shape & HBR
Trap Box + 2 Pan, 6.7 m
Radar Cross Section
3.464 m², Large (>1 m²)

Expand to show TLE details & history
Last TLE update: 11 hours ago

TLE from 11 hours ago
0 ONEWEB-0068
1 45446U 20020Y   26254.75018928  .00000436  00000-0  11957-2 0  9994
2 45446  87.8973   3.8566 0002014 100.3303 259.8052 13.11416776313940
Epoch: 2026-09-11T18:00Z
TLE epoch observation values (Epoch: 2026-09-11T18:00:16.353Z)
Latitude
-0.00005°
Longitude
103.0194°
Altitude
1,220.844 km
Speed
7.244 km/s
True Right ascension
00h 15m 25s
True Declination
0° 00' 00"
Sunlit
Object was in full shadow at epoch
Visualization orbit readout
Latitude
Unknown
Longitude
Unknown
Altitude
Unknown
Speed
Unknown
Apparent Right ascension
Unknown
Apparent Declination
Unknown
Sunlit
N/A
Visualization observer readout
Local Sidereal Time
21:38:00
Azimuth
Unknown
Elevation
Unknown
Doppler factor
Unknown
Orbital elements
Apogee altitude
1,216.331 km
Perigee altitude
1,213.272 km
Semi-major axis
7,592.938 km
Eccentricity
0.0002
Inclination
87.8973°
RAAN
3.8566°
Arg. of periapsis
100.3303°
True anomaly
259.78249°
Mean anomaly
259.8052°
Eccentric anomaly
259.79384°
Mean motion
3.28041 °/min
Orbital period
109.74 mins
BSTAR
0.0011957
Loading maneuver chart data...
Computing Atmospheric mass density...
Loading historical data...
Loading historical data...
Loading historical data...
Loading historical data...
Loading historical data...
Loading historical data...
Loading historical data...

Documentation

Showing up to 5 results
|